TimeMDT,TemperatureF,Dew PointF,Humidity,Sea Level PressureIn,VisibilityMPH,Wind Direction,Wind SpeedMPH,Gust SpeedMPH,PrecipitationIn,Events,Conditions,WindDirDegrees,DateUTC
12:15 AM,51.8,50.0,94,30.52,0.5,NE,10.4,18.4,N/A,Rain-Thunderstorm,Rain,50,2013-07-15 06:15:00
12:35 AM,51.8,50.0,94,30.52,0.2,ENE,4.6,-,N/A,Rain,Rain,70,2013-07-15 06:35:00
12:55 AM,51.8,50.0,94,30.52,0.5,ENE,6.9,-,N/A,Rain,Rain,70,2013-07-15 06:55:00
1:15 AM,50.0,48.2,94,30.51,0.8,NNE,5.8,-,N/A,Rain,Heavy Rain,20,2013-07-15 07:15:00
1:34 AM,50.0,48.2,94,30.51,0.5,North,3.5,-,N/A,Rain,Light Rain,10,2013-07-15 07:34:00
1:55 AM,50.0,48.2,94,30.51,0.5,NNE,3.5,-,N/A,Rain,Rain,30,2013-07-15 07:55:00
2:15 AM,50.0,48.2,94,30.50,0.5,NE,3.5,-,N/A,,Heavy Drizzle,50,2013-07-15 08:15:00
2:35 AM,50.0,46.4,87,30.50,0.5,Calm,Calm,-,N/A,,Drizzle,0,2013-07-15 08:35:00
2:55 AM,48.2,46.4,93,30.50,7.0,Calm,Calm,-,N/A,,Overcast,0,2013-07-15 08:55:00
3:13 AM,48.2,46.4,93,30.49,10.0,North,3.5,-,N/A,Thunderstorm,Overcast,360,2013-07-15 09:13:00
3:34 AM,48.2,46.4,93,30.49,7.0,Calm,Calm,-,N/A,,Drizzle,0,2013-07-15 09:34:00
3:55 AM,48.2,46.4,93,30.49,0.5,NNE,4.6,-,N/A,Rain,Rain,30,2013-07-15 09:55:00
4:14 AM,48.2,46.4,93,30.48,0.2,ENE,4.6,-,N/A,,Drizzle,60,2013-07-15 10:14:00
4:35 AM,48.2,46.4,93,30.48,0.5,NE,8.1,-,N/A,Rain,Rain,50,2013-07-15 10:35:00
4:54 AM,50.0,46.4,87,30.49,0.5,ENE,5.8,-,N/A,Rain,Heavy Rain,60,2013-07-15 10:54:00
5:13 AM,48.2,46.4,93,30.48,0.5,ENE,17.3,25.3,N/A,Rain,Rain,60,2013-07-15 11:13:00
5:35 AM,48.2,46.4,93,30.48,0.5,ENE,12.7,20.7,N/A,Rain,Rain,60,2013-07-15 11:35:00
5:54 AM,48.2,46.4,93,30.48,0.5,ENE,12.7,18.4,N/A,Rain,Rain,70,2013-07-15 11:54:00
6:15 AM,48.2,46.4,93,30.48,0.5,ENE,12.7,18.4,N/A,Rain,Rain,60,2013-07-15 12:15:00
6:35 AM,48.2,46.4,93,30.48,0.2,ENE,10.4,16.1,N/A,,Drizzle,60,2013-07-15 12:35:00
6:55 AM,48.2,46.4,93,30.49,0.2,ENE,10.4,19.6,N/A,,Drizzle,60,2013-07-15 12:55:00
7:14 AM,48.2,46.4,93,30.49,0.2,NE,9.2,-,N/A,Rain,Rain,50,2013-07-15 13:14:00
7:34 AM,48.2,46.4,93,30.50,0.2,ENE,8.1,16.1,N/A,Rain,Rain,60,2013-07-15 13:34:00
7:55 AM,48.2,46.4,93,30.50,0.2,ENE,6.9,-,N/A,Rain,Light Rain,60,2013-07-15 13:55:00
8:15 AM,50.0,46.4,87,30.50,0.2,ENE,11.5,17.3,N/A,Rain,Light Rain,70,2013-07-15 14:15:00
8:35 AM,50.0,46.4,87,30.50,0.2,ENE,8.1,17.3,N/A,Rain,Light Rain,60,2013-07-15 14:35:00
8:54 AM,48.2,46.4,93,30.50,0.2,ENE,11.5,17.3,N/A,Rain,Light Rain,60,2013-07-15 14:54:00
9:15 AM,50.0,46.4,87,30.50,0.2,ENE,12.7,20.7,N/A,Rain,Rain,70,2013-07-15 15:15:00
9:35 AM,50.0,48.2,94,30.50,0.2,ENE,10.4,17.3,N/A,Rain,Rain,60,2013-07-15 15:35:00
9:54 AM,50.0,48.2,94,30.50,0.2,ENE,9.2,-,N/A,,Drizzle,70,2013-07-15 15:54:00
10:15 AM,50.0,48.2,94,30.50,0.2,East,15.0,21.9,N/A,Rain,Rain,80,2013-07-15 16:15:00
10:34 AM,48.2,46.4,93,30.50,0.2,East,15.0,21.9,N/A,Rain-Thunderstorm,Light Thunderstorms and Rain,90,2013-07-15 16:34:00
10:55 AM,48.2,46.4,93,30.50,0.2,East,15.0,20.7,N/A,,Drizzle,90,2013-07-15 16:55:00
11:15 AM,50.0,48.2,94,30.50,0.2,East,13.8,24.2,N/A,Rain,Rain,80,2013-07-15 17:15:00
11:35 AM,51.8,50.0,94,30.50,0.2,ENE,11.5,24.2,N/A,,Light Drizzle,60,2013-07-15 17:35:00
11:55 AM,50.0,48.2,94,30.50,0.2,ENE,11.5,21.9,N/A,,Light Drizzle,70,2013-07-15 17:55:00
12:15 PM,50.0,46.4,87,30.51,0.2,ENE,13.8,23.0,N/A,,Drizzle,70,2013-07-15 18:15:00
12:35 PM,48.2,46.4,93,30.51,0.2,ENE,12.7,21.9,N/A,Thunderstorm,Unknown,70,2013-07-15 18:35:00
12:55 PM,48.2,46.4,93,30.51,0.2,ENE,12.7,19.6,N/A,Fog,Fog,60,2013-07-15 18:55:00
1:14 PM,50.0,46.4,87,30.51,0.2,ENE,15.0,21.9,N/A,Fog,Fog,70,2013-07-15 19:14:00
1:35 PM,51.8,50.0,94,30.50,0.2,ENE,15.0,21.9,N/A,Fog,Fog,70,2013-07-15 19:35:00
1:55 PM,53.6,51.8,94,30.49,5.0,ENE,15.0,25.3,N/A,,Overcast,70,2013-07-15 19:55:00
2:15 PM,51.8,50.0,94,30.49,5.0,ENE,12.7,20.7,N/A,,Overcast,70,2013-07-15 20:15:00
2:35 PM,51.8,48.2,88,30.49,10.0,ENE,12.7,23.0,N/A,,Overcast,60,2013-07-15 20:35:00
2:55 PM,51.8,50.0,94,30.48,5.0,ENE,17.3,25.3,N/A,,Overcast,70,2013-07-15 20:55:00
3:15 PM,50.0,46.4,87,30.48,5.0,ENE,16.1,23.0,N/A,,Overcast,70,2013-07-15 21:15:00
3:34 PM,48.2,44.6,87,30.48,10.0,ENE,12.7,20.7,N/A,,Overcast,70,2013-07-15 21:34:00
3:55 PM,48.2,46.4,93,30.48,10.0,ENE,16.1,25.3,N/A,,Overcast,70,2013-07-15 21:55:00
4:15 PM,48.2,44.6,87,30.48,10.0,ENE,10.4,19.6,N/A,,Overcast,60,2013-07-15 22:15:00
4:35 PM,46.4,44.6,93,30.48,10.0,ENE,12.7,21.9,N/A,,Overcast,70,2013-07-15 22:35:00
4:55 PM,48.2,44.6,87,30.48,10.0,ENE,12.7,18.4,N/A,,Overcast,70,2013-07-15 22:55:00
5:15 PM,48.2,42.8,82,30.48,10.0,ENE,11.5,18.4,N/A,,Overcast,70,2013-07-15 23:15:00
5:35 PM,50.0,42.8,76,30.48,10.0,ENE,12.7,20.7,N/A,,Overcast,60,2013-07-15 23:35:00
5:54 PM,50.0,42.8,76,30.47,10.0,ENE,12.7,19.6,N/A,,Overcast,70,2013-07-15 23:54:00
6:15 PM,50.0,42.8,76,30.47,10.0,ENE,13.8,19.6,N/A,,Scattered Clouds,70,2013-07-16 00:15:00
6:35 PM,46.4,41.0,81,30.47,10.0,ENE,9.2,18.4,N/A,,Scattered Clouds,70,2013-07-16 00:35:00
6:54 PM,46.4,41.0,81,30.47,10.0,ENE,13.8,17.3,N/A,Thunderstorm,Scattered Clouds,70,2013-07-16 00:54:00
7:15 PM,44.6,41.0,87,30.47,10.0,ENE,10.4,18.4,N/A,,Scattered Clouds,70,2013-07-16 01:15:00
7:34 PM,44.6,41.0,87,30.47,10.0,ENE,13.8,20.7,N/A,,Mostly Cloudy,70,2013-07-16 01:34:00
7:55 PM,44.6,42.8,93,30.48,10.0,ENE,15.0,18.4,N/A,,Mostly Cloudy,70,2013-07-16 01:55:00
8:14 PM,44.6,41.0,87,30.48,10.0,ENE,11.5,-,N/A,,Overcast,70,2013-07-16 02:14:00
8:35 PM,44.6,41.0,87,30.48,10.0,East,12.7,18.4,N/A,,Overcast,80,2013-07-16 02:35:00
8:55 PM,44.6,41.0,87,30.49,10.0,East,9.2,-,N/A,,Overcast,80,2013-07-16 02:55:00
9:14 PM,44.6,41.0,87,30.50,10.0,ENE,8.1,-,N/A,,Overcast,70,2013-07-16 03:14:00
9:35 PM,44.6,41.0,87,30.50,10.0,ENE,9.2,-,N/A,,Mostly Cloudy,70,2013-07-16 03:35:00
9:54 PM,44.6,41.0,87,30.50,10.0,ENE,11.5,17.3,N/A,,Scattered Clouds,70,2013-07-16 03:54:00
10:15 PM,44.6,41.0,87,30.50,10.0,East,11.5,-,N/A,,Clear,80,2013-07-16 04:15:00
10:34 PM,44.6,39.2,81,30.50,10.0,ENE,10.4,-,N/A,,Scattered Clouds,70,2013-07-16 04:34:00
10:55 PM,42.8,39.2,87,30.50,10.0,ENE,8.1,16.1,N/A,,Scattered Clouds,60,2013-07-16 04:55:00
11:15 PM,42.8,39.2,87,30.50,10.0,NE,6.9,-,N/A,,Clear,50,2013-07-16 05:15:00
11:35 PM,41.0,39.2,93,30.50,10.0,NE,4.6,-,N/A,,Clear,40,2013-07-16 05:35:00
11:54 PM,41.0,37.4,87,30.50,10.0,NE,4.6,-,N/A,,Clear,50,2013-07-16 05:54:00